Regional Weather Roundup
Issued by NWS

Home | Current Version | Previous Version | Text Only | Print | Product List | Glossary Off
Versions: 1 2 3 4 5 6 7 8 9 10 11 12 13 14 15 16 17 18 19 20 21 22 23 24 25 26 27 28 29 30 31 32 33 34 35 36 37 38 39 40 41 42 43 44 45 46 47 48 49 50

000
ASUS43 KOAX 240002
RWRNE

WEATHER ROUNDUP FOR NEBRASKA
NATIONAL WEATHER SERVICE OMAHA NE
700 PM CDT WED JUL 23 2014

NOTES: SATELLITE DATA IS BEING USED TO AUGMENT CLOUD COVER ABOVE
       12000 FEET.
       "FAIR" INDICATES FEW OR NO CLOUDS BELOW 12,000 FEET WITH NO
       SIGNIFICANT WEATHER AND/OR OBSTRUCTIONS TO VISIBILITY.

  * THESE STATIONS DO NOT REPORT WEATHER SUCH AS RAIN...SNOW OR FOG.

NEZ001>004-019>022-054>056-240100-
NEBRASKA PANHANDLE

CITY           SKY/WX    TMP DP  RH WIND       PRES   REMARKS
SCOTTSBLUFF    MOSUNNY   89  66  46 S7        30.13F HX  91
6HR MIN TEMP:  84; 6HR MAX TEMP:  93;

ALLIANCE       SUNNY     93  61  34 S16       30.13F HX  93
6HR MIN TEMP:  87; 6HR MAX TEMP:  95;

CHADRON        SUNNY     94  64  37 SE20      30.06F HX  95
6HR MIN TEMP:  89; 6HR MAX TEMP:  95;

KIMBALL        MOSUNNY   89  61  39 S15G23    30.19F
SIDNEY         SUNNY     95  56  26 S17G24    30.17F HX  93
6HR MIN TEMP:  84; 6HR MAX TEMP:  95;

$$

NEZ057>060-069>072-079>082-240100-
SOUTHWEST NEBRASKA

CITY           SKY/WX    TMP DP  RH WIND       PRES   REMARKS
NORTH PLATTE   SUNNY     80  64  58 SE18      30.15F
6HR MIN TEMP:  71; 6HR MAX TEMP:  83; 6HR PCP: TRACE;

IMPERIAL       SUNNY     85  65  51 SE18      30.15R
6HR MIN TEMP:  80; 6HR MAX TEMP:  94;

LEXINGTON      SUNNY     81  62  52 SE10      30.18S
MCCOOK         SUNNY     81  67  62 E16       30.15F
6HR MIN TEMP:  68; 6HR MAX TEMP:  86;

OGALLALA       SUNNY     83  67  57 E15       30.14F
$$

NEZ005>010-023>029-035>040-094-240100-
NORTH CENTRAL NEBRASKA

CITY           SKY/WX    TMP DP  RH WIND       PRES   REMARKS
VALENTINE      SUNNY     86  58  38 E16       30.15F
6HR MIN TEMP:  83; 6HR MAX TEMP:  89;

AINSWORTH      SUNNY     82  55  39 SE13G18   30.17F
BROKEN BOW     SUNNY     80  60  50 SE12G22   30.18F
6HR MIN TEMP:  75; 6HR MAX TEMP:  83;

O`NEILL        SUNNY     81  52  36 E10       30.18F
ORD            SUNNY     81  59  47 E9        30.16F
6HR MIN TEMP:  77; 6HR MAX TEMP:  83;

THEDFORD       SUNNY     84  58  41 SE13      30.18F
$$

NEZ041-046>049-061>064-073>077-083>087-240100-
SOUTH CENTRAL NEBRASKA

CITY           SKY/WX    TMP DP  RH WIND       PRES   REMARKS
GRAND ISLAND   SUNNY     81  59  47 E10       30.17F
6HR MIN TEMP:  77; 6HR MAX TEMP:  83;

AURORA         SUNNY     81  62  52 E7        30.17S
HASTINGS       SUNNY     81  57  43 E10       30.17S
6HR MIN TEMP:  73; 6HR MAX TEMP:  83;

HEBRON         SUNNY     83  56  39 E8        30.14R
HOLDREGE       SUNNY     80  63  55 E8        30.18F
KEARNEY *      SUNNY     81  63  54 E10       30.19S
YORK           SUNNY     81  61  50 NE12      30.16S
$$

NEZ011>018-030>034-042>045-240100-
NORTHEAST NEBRASKA

CITY           SKY/WX    TMP DP  RH WIND       PRES   REMARKS
NORFOLK        SUNNY     81  58  45 E9        30.16F
6HR MIN TEMP:  79; 6HR MAX TEMP:  84;

ALBION         SUNNY     80  54  40 E6        30.18S
BLAIR          SUNNY     80  57  44 NE5       30.15F
COLUMBUS *     SUNNY     81  57  44 E6        30.16S
FREMONT        SUNNY     83  56  40 NE6       30.15F
TEKAMAH        SUNNY     82  60  47 E9        30.15F
6HR MIN TEMP:  82; 6HR MAX TEMP:  86;

WAYNE          SUNNY     81  60  49 NE8       30.17F
$$

NEZ050>053-065>068-078-088>093-240100-
SOUTHEAST NEBRASKA

CITY           SKY/WX    TMP DP  RH WIND       PRES   REMARKS
LINCOLN        SUNNY     85  58  39 NE10      30.13F
6HR MIN TEMP:  84; 6HR MAX TEMP:  89;

OMAHA EPPLEY   SUNNY     83  59  44 NE9       30.14F
6HR MIN TEMP:  82; 6HR MAX TEMP:  86;

BEATRICE       SUNNY     82  63  51 E7        30.12F
FALLS CITY     SUNNY     83  65  54 NE6       30.11S
6HR MIN TEMP:  83; 6HR MAX TEMP:  87;

NEBRASKA CITY  SUNNY     81  59  48 NE8       30.13S
PLATTSMOUTH    SUNNY     82  57  42 NE5       30.14F
$$

NEZ044-045-051>053-067-240100-
OMAHA AREA

CITY           SKY/WX    TMP DP  RH WIND       PRES   REMARKS
OMAHA EPPLEY   SUNNY     83  59  44 NE9       30.14F
6HR MIN TEMP:  82; 6HR MAX TEMP:  86;

BLAIR          SUNNY     80  57  44 NE5       30.15F
FREMONT        SUNNY     83  56  40 NE6       30.15F
MILLARD        SUNNY     83  59  45 N3        30.13F
OFFUTT AFB     SUNNY     83  63  51 NE3       30.13F
PLATTSMOUTH    SUNNY     82  57  42 NE5       30.14F
WAHOO          FAIR      82  60  47 NE6       30.14F
$$



USA.gov is the U.S. government's official web portal to all federal, state and local government web resources and services.